Location: Newark
(51.3318°N, 0.0053°E)
Time: 20:49:50
(UTC+00:00)

Oscar 19 - Visible Passes

Search period start: 28 June 2022 00:00
Search period end: 08 July 2022 00:00
Orbit: 772 x 790 km, 98.8° (Epoch: 28 June)

Date Brightness Start Highest point End Pass type
(mag) Time Alt. Az. Time Alt. Az. Time Alt. Az.
28 Jun 13.2 02:04:22 10° ENE 02:06:32 13° E 02:08:43 10° ESE visible
30 Jun 12.7 02:38:08 10° NE 02:42:16 24° E 02:46:22 10° SE visible
01 Jul 13.2 02:07:22 10° ENE 02:09:49 13° E 02:12:15 10° ESE visible
03 Jul 12.6 02:41:18 10° NE 02:45:31 25° E 02:49:44 10° SSE visible
04 Jul 13.1 02:10:25 10° NE 02:13:05 14° E 02:15:45 10° ESE visible
06 Jul 12.5 02:44:27 10° NE 02:48:47 27° E 02:53:04 10° SSE visible
07 Jul 13.1 02:13:28 10° NE 02:16:21 15° E 02:19:13 10° ESE visible
